Stevensville, MD

4:06 PM EST on January 23, 2018 (GMT -0500)
Stevensville

Weather History for KW29 - January, 2013

Change the Weather History Date:

Sunday, January 27, 2013

  Actual Average (KESN) Record (KESN)
Temperature  
Mean Temperature 29 °F -  
Max Temperature 35 °F 48 °F 74 °F (1950)
Min Temperature 23 °F 30 °F 6 °F (1961)
Degree Days  
Heating Degree Days 36    
Moisture  
Dew Point 20 °F    
Average Humidity 70    
Maximum Humidity 93    
Minimum Humidity 51    
Precipitation  
Precipitation 0.00 in - - ()
Sea Level Pressure  
Sea Level Pressure 30.53 in    
Wind  
Wind Speed 1 mph (South)    
Max Wind Speed 7 mph    
Max Gust Speed -    
Visibility 10 miles    
Events      
Averages and records for this station are not official NWS values.
T = Trace of Precipitation, MM = Missing Value Source: NWS Daily Summary

Daily Weather History Graph

Daily Weather History Graph

Search for Another Location

Airport or City:

Trip Planner

Search our weather history database for the weather conditions in past years. The results will help you decide how hot, cold, wet, or windy it might be!

Date:

Astronomy

Jan. 27, 2013 Rise Set
Actual Time 7:15 AM EST 5:21 PM EST
Civil Twilight 6:47 AM EST 5:49 PM EST
Nautical Twilight 6:15 AM EST 6:21 PM EST
Astronomical Twilight 5:43 AM EST 6:53 PM EST
Moon 6:12 PM EST (1/27) 7:08 AM EST (1/27)
Length of Visible Light 11h 02m
Length of Day
10h 05m
Full, 100% of the Moon is Illuminated
Jan 27
Full
Feb 3
Last Quarter
Feb 10
New
Feb 17
First Quarter
Feb 25
Full

Hourly Weather History & Observations

Time (EST) Temp. Windchill Dew Point Humidity Pressure Visibility Wind Dir Wind Speed Gust Speed Precip Events Conditions
12:04 AM 28.4 °F - 19.4 °F 69% 30.44 in 10.0 mi Calm Calm - N/A   Clear
12:25 AM 26.6 °F - 17.6 °F 69% 30.45 in 10.0 mi Calm Calm - N/A   Clear
12:46 AM 24.8 °F - 19.4 °F 80% 30.46 in 10.0 mi Calm Calm - N/A   Clear
1:08 AM 23.0 °F - 19.4 °F 86% 30.46 in 10.0 mi Calm Calm - N/A   Clear
1:29 AM 23.0 °F - 19.4 °F 86% 30.47 in 10.0 mi Calm Calm - N/A   Mostly Cloudy
1:50 AM 24.8 °F - 19.4 °F 80% 30.47 in 10.0 mi Calm Calm - N/A   Mostly Cloudy
2:11 AM 23.0 °F - 19.4 °F 86% 30.48 in 10.0 mi Calm Calm - N/A   Scattered Clouds
2:33 AM 23.0 °F - 19.4 °F 86% 30.48 in 10.0 mi Calm Calm - N/A   Clear
2:54 AM 23.0 °F - 19.4 °F 86% 30.48 in 10.0 mi Calm Calm - N/A   Clear
3:15 AM 23.0 °F - 19.4 °F 86% 30.49 in 10.0 mi Calm Calm - N/A   Scattered Clouds
3:37 AM 23.0 °F - 19.4 °F 86% 30.49 in 10.0 mi Calm Calm - N/A   Mostly Cloudy
3:58 AM 23.0 °F - 19.4 °F 86% 30.49 in 10.0 mi Calm Calm - N/A   Mostly Cloudy
4:19 AM 23.0 °F - 19.4 °F 86% 30.49 in 10.0 mi Calm Calm - N/A   Scattered Clouds
4:41 AM 24.8 °F - 21.2 °F 86% 30.50 in 10.0 mi Calm Calm - N/A   Scattered Clouds
5:02 AM 23.0 °F - 21.2 °F 93% 30.49 in 10.0 mi Calm Calm - N/A   Clear
5:23 AM 24.8 °F - 21.2 °F 86% 30.50 in 10.0 mi Calm Calm - N/A   Clear
5:44 AM 24.8 °F - 21.2 °F 86% 30.50 in 10.0 mi Calm Calm - N/A   Clear
6:06 AM 24.8 °F - 21.2 °F 86% 30.51 in 10.0 mi Calm Calm - N/A   Clear
6:27 AM 24.8 °F - 21.2 °F 86% 30.52 in 10.0 mi Calm Calm - N/A   Clear
6:48 AM 24.8 °F - 21.2 °F 86% 30.53 in 10.0 mi Calm Calm - N/A   Clear
7:09 AM 26.6 °F - 21.2 °F 80% 30.54 in 10.0 mi Calm Calm - N/A   Clear
7:31 AM 24.8 °F - 21.2 °F 86% 30.55 in 10.0 mi Calm Calm - N/A   Clear
7:52 AM 26.6 °F - 21.2 °F 80% 30.56 in 10.0 mi Calm Calm - N/A   Clear
8:13 AM 28.4 °F - 23.0 °F 80% 30.57 in 10.0 mi Calm Calm - N/A   Clear
8:34 AM 30.2 °F - 21.2 °F 69% 30.58 in 10.0 mi Calm Calm - N/A   Clear
8:56 AM 30.2 °F 23.4 °F 21.2 °F 69% 30.59 in 10.0 mi North 6.9 mph - N/A   Clear
9:17 AM 30.2 °F 25.4 °F 17.6 °F 60% 30.60 in 10.0 mi NW 4.6 mph - N/A   Clear
9:38 AM 30.2 °F 23.4 °F 17.6 °F 60% 30.60 in 10.0 mi NNW 6.9 mph - N/A   Clear
9:59 AM 32.0 °F 25.6 °F 19.4 °F 60% 30.61 in 10.0 mi NW 6.9 mph - N/A   Clear
10:21 AM 32.0 °F 27.5 °F 17.6 °F 55% 30.61 in 10.0 mi NNE 4.6 mph - N/A   Clear
10:42 AM 32.0 °F 26.4 °F 19.4 °F 60% 30.62 in 10.0 mi WNW 5.8 mph - N/A   Clear
11:03 AM 32.0 °F 28.7 °F 19.4 °F 60% 30.61 in 10.0 mi WNW 3.5 mph - N/A   Clear
11:24 AM 32.0 °F 28.7 °F 19.4 °F 60% 30.61 in 10.0 mi WNW 3.5 mph - N/A   Clear
11:46 AM 32.0 °F 28.7 °F 17.6 °F 55% 30.59 in 10.0 mi NNW 3.5 mph - N/A   Clear
12:07 PM 32.0 °F 27.5 °F 15.8 °F 51% 30.58 in 10.0 mi NNW 4.6 mph - N/A   Clear
12:28 PM 32.0 °F 28.7 °F 15.8 °F 51% 30.57 in 10.0 mi NNW 3.5 mph - N/A   Clear
12:49 PM 32.0 °F - 17.6 °F 55% 30.56 in 10.0 mi Calm Calm - N/A   Clear
1:11 PM 33.8 °F - 17.6 °F 52% 30.55 in 10.0 mi Calm Calm - N/A   Clear
1:32 PM 33.8 °F 30.8 °F 17.6 °F 52% 30.54 in 10.0 mi NW 3.5 mph - N/A   Clear
1:53 PM 33.8 °F 30.8 °F 17.6 °F 52% 30.54 in 10.0 mi WNW 3.5 mph - N/A   Clear
2:14 PM 33.8 °F 30.8 °F 17.6 °F 52% 30.54 in 10.0 mi WNW 3.5 mph - N/A   Clear
2:36 PM 33.8 °F 30.8 °F 19.4 °F 56% 30.54 in 10.0 mi WNW 3.5 mph - N/A   Clear
2:57 PM 33.8 °F - 17.6 °F 52% 30.53 in 10.0 mi Calm Calm - N/A   Clear
3:18 PM 35.6 °F - 19.4 °F 52% 30.53 in 10.0 mi Calm Calm - N/A   Clear
3:39 PM 33.8 °F 30.8 °F 19.4 °F 56% 30.52 in 10.0 mi SE 3.5 mph - N/A   Clear
4:01 PM 33.8 °F 29.6 °F 19.4 °F 56% 30.52 in 10.0 mi SSE 4.6 mph - N/A   Clear
4:22 PM 33.8 °F 28.6 °F 19.4 °F 56% 30.52 in 10.0 mi SSE 5.8 mph - N/A   Clear
4:43 PM 33.8 °F 28.6 °F 19.4 °F 56% 30.53 in 10.0 mi SE 5.8 mph - N/A   Clear
5:04 PM 32.0 °F 28.7 °F 21.2 °F 64% 30.53 in 10.0 mi SE 3.5 mph - N/A   Clear
5:26 PM 32.0 °F - 21.2 °F 64% 30.53 in 10.0 mi Calm Calm - N/A   Clear
5:47 PM 32.0 °F - 19.4 °F 60% 30.54 in 10.0 mi Calm Calm - N/A   Clear
6:08 PM 32.0 °F - 19.4 °F 60% 30.54 in 10.0 mi Calm Calm - N/A   Clear
6:51 PM 32.0 °F - 21.2 °F 64% 30.54 in 10.0 mi Calm Calm - N/A   Clear
7:12 PM 32.0 °F - 21.2 °F 64% 30.55 in 10.0 mi Calm Calm - N/A   Clear
7:33 PM 32.0 °F 28.7 °F 21.2 °F 64% 30.53 in 10.0 mi SSE 3.5 mph - N/A   Clear
7:54 PM 32.0 °F - 23.0 °F 69% 30.54 in 10.0 mi Calm Calm - N/A   Clear
8:16 PM 32.0 °F - 23.0 °F 69% 30.54 in 10.0 mi Calm Calm - N/A   Clear
8:37 PM 30.2 °F 25.4 °F 23.0 °F 75% 30.53 in 10.0 mi SE 4.6 mph - N/A   Clear
8:58 PM 30.2 °F 26.7 °F 23.0 °F 75% 30.53 in 10.0 mi ESE 3.5 mph - N/A   Clear
9:19 PM 30.2 °F 25.4 °F 23.0 °F 75% 30.53 in 10.0 mi ESE 4.6 mph - N/A   Clear
9:41 PM 30.2 °F 26.7 °F 23.0 °F 75% 30.54 in 10.0 mi SE 3.5 mph - N/A   Clear
10:02 PM 30.2 °F 25.4 °F 23.0 °F 75% 30.52 in 10.0 mi SSE 4.6 mph - N/A   Clear
10:23 PM 30.2 °F 25.4 °F 24.8 °F 80% 30.53 in 10.0 mi SSE 4.6 mph - N/A   Clear
10:45 PM 30.2 °F 24.3 °F 26.6 °F 86% 30.52 in 10.0 mi SSE 5.8 mph - N/A   Clear
11:06 PM 30.2 °F 23.4 °F 24.8 °F 80% 30.51 in 10.0 mi SE 6.9 mph - N/A   Clear
11:27 PM 30.2 °F 25.4 °F 24.8 °F 80% 30.52 in 10.0 mi SSE 4.6 mph - N/A   Clear
11:49 PM 32.0 °F 28.7 °F 26.6 °F 80% 30.53 in 10.0 mi South 3.5 mph - N/A   Clear